EDT,Max TemperatureF,Mean TemperatureF,Min TemperatureF,Max Dew PointF,MeanDew PointF,Min DewpointF,Max Humidity, Mean Humidity, Min Humidity, Max Sea Level PressureIn, Mean Sea Level PressureIn, Min Sea Level PressureIn, Max VisibilityMiles, Mean VisibilityMiles, Min VisibilityMiles, Max Wind SpeedMPH, Mean Wind SpeedMPH, Max Gust SpeedMPH,PrecipitationIn, CloudCover, Events, WindDirDegrees
2012-10-1,64,60,55,61,56,52,100,90,80,29.86,29.78,29.67,10,4,1,13,3,22,1.08,7,Rain,108
2012-10-2,81,72,62,68,63,58,93,76,58,29.97,29.77,29.68,10,9,2,9,3,15,0.04,6,Rain,140
2012-10-3,74,67,59,61,55,52,93,71,49,30.18,30.07,29.94,10,10,10,7,1,16,0.00,4,,300
2012-10-4,76,66,56,57,55,54,93,70,46,30.27,30.22,30.18,10,10,10,8,1,15,0.00,1,,-1
2012-10-5,78,67,55,58,55,53,93,72,50,30.20,30.11,29.96,10,10,8,8,1,13,0.00,1,,195
2012-10-6,64,54,43,55,42,31,100,70,40,30.15,30.07,29.92,10,9,2,16,3,25,0.24,5,Rain,308
2012-10-7,54,49,43,40,37,35,83,67,50,30.18,30.13,30.07,10,10,10,8,1,13,0.00,6,,-1
2012-10-8,47,44,41,43,41,36,100,85,70,30.25,30.21,30.16,10,7,1,6,0,9,0.31,7,Rain,130
2012-10-9,57,48,39,45,42,37,100,83,66,30.21,30.14,30.05,10,8,0,7,1,10,0.00,7,Fog,143
2012-10-10,61,52,43,48,42,33,93,70,47,30.25,30.09,30.02,10,10,10,13,4,23,T,4,Rain,307
2012-10-11,64,51,37,40,35,32,85,61,36,30.31,30.25,30.20,10,10,10,7,1,12,0.00,0,,132
2012-10-12,66,55,43,42,40,37,86,63,39,30.34,30.29,30.22,10,10,10,7,1,10,0.00,2,,340
2012-10-13,76,61,45,54,48,41,82,64,46,30.32,30.24,30.16,10,10,10,10,4,16,0.00,1,,143
2012-10-14,73,65,57,61,54,49,78,68,57,30.15,30.00,29.85,10,10,4,15,6,33,0.06,2,Rain,177
2012-10-15,64,56,47,61,47,39,86,65,43,29.97,29.90,29.83,10,10,10,15,6,25,T,4,Rain,277
2012-10-16,66,53,40,42,39,34,93,64,34,30.04,29.97,29.88,10,9,0,7,1,12,0.00,0,Fog,240
2012-10-17,74,62,49,49,42,39,66,52,38,29.91,29.83,29.67,10,10,10,10,4,17,0.00,0,,183
2012-10-18,62,55,47,53,47,38,93,70,47,29.77,29.71,29.62,10,10,7,13,4,32,0.05,5,Rain,161
2012-10-19,65,55,45,45,37,31,86,57,28,29.78,29.71,29.65,10,10,10,15,4,24,T,5,,202
2012-10-20,57,52,47,41,40,37,77,66,55,30.01,29.89,29.78,10,10,10,9,3,18,0.00,8,,270
2012-10-21,68,55,42,44,42,41,96,69,42,30.18,30.12,30.03,10,10,10,6,1,10,0.00,2,,173
2012-10-22,79,65,50,50,46,43,77,56,35,30.20,30.15,30.11,10,10,10,8,1,14,0.00,2,,200
2012-10-23,79,68,57,52,48,43,72,52,31,30.15,30.10,30.06,10,10,10,8,1,16,0.00,1,,206
2012-10-24,79,70,60,51,48,43,69,50,30,30.19,30.11,30.06,10,10,10,7,0,14,0.00,2,,160
2012-10-25,81,69,56,50,46,42,72,51,30,30.12,30.05,30.00,10,10,10,8,2,13,0.00,0,,184
2012-10-26,77,63,48,55,51,46,83,66,49,30.10,30.02,29.96,10,10,10,9,3,15,0.00,3,,192
2012-10-27,50,47,44,46,45,44,100,90,80,30.05,30.01,29.97,10,5,2,7,2,13,0.36,8,Rain,320
2012-10-28,45,42,38,44,40,35,100,96,92,30.01,29.96,29.93,10,7,2,12,4,22,0.80,8,Rain,11
2012-10-29,39,36,32,36,34,32,96,88,79,29.97,29.88,29.71,10,8,3,18,9,25,0.46,8,Rain-Snow,311
2012-10-30,37,35,32,36,33,30,100,95,89,29.72,29.60,29.55,9,3,0,15,8,25,0.76,8,Fog-Rain-Snow,263
2012-10-31,45,41,36,37,35,32,100,83,65,29.87,29.77,29.69,10,7,2,15,4,23,0.08,8,Rain,262